Location: Casilda
(33.0440°S, 61.1680°W)
Time: 18:11:53
(UTC-03:00)

ISS - Pass Details

Date: 29 November 2020
Orbit: 418 x 420 km, 51.6° (Epoch: 04 December)

Event Time Altitude Azimuth Distance (km) Brightness Sun altitude
Exits shadow 03:16:26 31° 127° (SE) 770 -1.9 -25.6°
Drops below altitude 10° 03:18:23 10° 131° (SE) 1,525 0.1 -25.3°
Sets 03:20:30 0° 132° (SE) 2,397 1.4 -25.0°
